MAS1327 WMKN-WMKK

Flight info

Callsign MAS1327
Flight time 0h 47m
Altitude 26000
Route LASOB1B LASOB Y346 PULIP PULIP1G
Aircraft B738/M-SDE2E3FGHIRWXY/LB1

Departure

Time 2026-04-25 04:47
Airport Sultan Mahmud Airport (WMKN)

Arrival

Time 2026-04-25 05:35
Airport Kuala Lumpur International Airport (WMKK)
Time Latitude Longitude Altitude Speed Heading
2026-04-25 04:24 5.37952 103.10444 24 ft 0 kts 135°
2026-04-25 04:41 5.37954 103.10442 24 ft 3 kts 135°
2026-04-25 04:41 5.37972 103.10425 27 ft 4 kts 134°
2026-04-25 04:42 5.37990 103.10405 27 ft 4 kts 129°
2026-04-25 04:42 5.38006 103.10383 29 ft 4 kts 122°
2026-04-25 04:42 5.38013 103.10372 28 ft 0 kts 120°
2026-04-25 04:44 5.38013 103.10379 28 ft 2 kts 80°
2026-04-25 04:44 5.38040 103.10391 26 ft 7 kts 12°
2026-04-25 04:45 5.38094 103.10405 24 ft 2 kts
2026-04-25 04:45 5.38105 103.10404 29 ft 2 kts 354°
2026-04-25 04:45 5.38116 103.10401 28 ft 2 kts 338°
2026-04-25 04:45 5.38148 103.10376 26 ft 12 kts 316°
2026-04-25 04:46 5.38197 103.10273 28 ft 12 kts 260°
2026-04-25 04:46 5.38157 103.10226 28 ft 6 kts 224°
2026-04-25 04:46 5.38148 103.10217 28 ft 0 kts 224°
2026-04-25 04:47 5.38140 103.10210 28 ft 14 kts 224°
2026-04-25 04:47 5.37866 103.09941 28 ft 95 kts 224°
2026-04-25 04:47 5.37226 103.09312 32 ft 160 kts 224°
2026-04-25 04:47 5.36407 103.08487 681 ft 167 kts 224°
2026-04-25 04:48 5.35573 103.07664 1454 ft 172 kts 222°
2026-04-25 04:48 5.34752 103.06734 2106 ft 195 kts 239°
2026-04-25 04:48 5.34259 103.05332 2373 ft 229 kts 251°
2026-04-25 04:48 5.33705 103.03744 2799 ft 249 kts 248°
2026-04-25 04:49 5.33063 103.02033 3215 ft 273 kts 248°
2026-04-25 04:49 5.32381 103.00241 4170 ft 274 kts 248°
2026-04-25 04:49 5.31691 102.98440 4650 ft 277 kts 248°
2026-04-25 04:49 5.30993 102.96631 4806 ft 281 kts 248°
2026-04-25 04:50 5.30278 102.94790 4959 ft 283 kts 248°
2026-04-25 04:50 5.29558 102.92943 5797 ft 284 kts 248°
2026-04-25 04:50 5.28837 102.91096 6748 ft 286 kts 248°
2026-04-25 04:50 5.28105 102.89224 7581 ft 290 kts 248°
2026-04-25 04:51 5.27376 102.87361 8369 ft 296 kts 248°
2026-04-25 04:51 5.26617 102.85421 9173 ft 302 kts 248°
2026-04-25 04:51 5.25841 102.83439 9966 ft 307 kts 248°
2026-04-25 04:51 5.25033 102.81376 10456 ft 325 kts 248°
2026-04-25 04:52 5.24197 102.79241 10874 ft 339 kts 248°
2026-04-25 04:52 5.23331 102.77030 11659 ft 342 kts 248°
2026-04-25 04:52 5.22455 102.74793 12421 ft 346 kts 248°
2026-04-25 04:52 5.21570 102.72536 13178 ft 350 kts 247°
2026-04-25 04:53 5.20505 102.70340 13866 ft 353 kts 231°
2026-04-25 04:53 5.18660 102.68740 14489 ft 352 kts 207°
2026-04-25 04:53 5.16477 102.67624 15168 ft 354 kts 204°
2026-04-25 04:53 5.14261 102.66495 15786 ft 359 kts 205°
2026-04-25 04:54 5.12024 102.65347 16394 ft 364 kts 204°
2026-04-25 04:54 5.09760 102.64176 16994 ft 368 kts 205°
2026-04-25 04:54 5.07482 102.62990 17680 ft 370 kts 205°
2026-04-25 04:54 5.05186 102.61791 18262 ft 375 kts 205°
2026-04-25 04:55 5.02861 102.60574 18762 ft 379 kts 205°
2026-04-25 04:55 5.00516 102.59346 19309 ft 382 kts 205°
2026-04-25 04:55 4.98148 102.58107 19849 ft 385 kts 205°
2026-04-25 04:55 4.95835 102.56897 20360 ft 388 kts 205°
2026-04-25 04:56 4.93429 102.55639 20882 ft 391 kts 205°
2026-04-25 04:56 4.91005 102.54371 21398 ft 394 kts 205°
2026-04-25 04:56 4.88563 102.53092 21905 ft 398 kts 205°
2026-04-25 04:56 4.86096 102.51801 22396 ft 401 kts 205°
2026-04-25 04:57 4.83616 102.50503 22874 ft 405 kts 205°
2026-04-25 04:57 4.81116 102.49194 23408 ft 406 kts 206°
2026-04-25 04:57 4.78614 102.47884 23980 ft 404 kts 206°
2026-04-25 04:57 4.76140 102.46587 24609 ft 399 kts 206°
2026-04-25 04:58 4.73686 102.45302 25179 ft 398 kts 206°
2026-04-25 04:58 4.71243 102.44023 25702 ft 397 kts 206°
2026-04-25 04:58 4.68794 102.42741 25890 ft 397 kts 206°
2026-04-25 04:58 4.66351 102.41462 25916 ft 395 kts 206°
2026-04-25 04:59 4.63903 102.40182 25918 ft 397 kts 206°
2026-04-25 04:59 4.61455 102.38901 25919 ft 397 kts 206°
2026-04-25 04:59 4.59006 102.37620 25915 ft 397 kts 206°
2026-04-25 04:59 4.56561 102.36341 25919 ft 397 kts 206°
2026-04-25 05:00 4.54111 102.35059 25923 ft 397 kts 206°
2026-04-25 05:00 4.51665 102.33779 25919 ft 397 kts 206°
2026-04-25 05:00 4.49213 102.32497 25919 ft 397 kts 206°
2026-04-25 05:00 4.46762 102.31215 25912 ft 397 kts 206°
2026-04-25 05:01 4.44309 102.29930 25909 ft 397 kts 206°
2026-04-25 05:01 4.41865 102.28653 25903 ft 397 kts 206°
2026-04-25 05:01 4.39414 102.27372 25908 ft 397 kts 206°
2026-04-25 05:01 4.36967 102.26092 25906 ft 397 kts 206°
2026-04-25 05:02 4.34522 102.24815 25903 ft 396 kts 206°
2026-04-25 05:02 4.32076 102.23536 25900 ft 396 kts 206°
2026-04-25 05:02 4.29634 102.22260 25898 ft 396 kts 206°
2026-04-25 05:02 4.27196 102.20985 25899 ft 395 kts 206°
2026-04-25 05:03 4.24753 102.19708 25900 ft 395 kts 206°
2026-04-25 05:03 4.22316 102.18434 25901 ft 395 kts 206°
2026-04-25 05:03 4.19879 102.17161 25901 ft 395 kts 206°
2026-04-25 05:03 4.17443 102.15888 25903 ft 395 kts 206°
2026-04-25 05:04 4.15000 102.14612 25898 ft 396 kts 206°
2026-04-25 05:04 4.12559 102.13336 25900 ft 396 kts 206°
2026-04-25 05:04 4.10121 102.12062 25907 ft 395 kts 206°
2026-04-25 05:04 4.07685 102.10789 25900 ft 396 kts 206°
2026-04-25 05:05 4.05240 102.09512 25906 ft 396 kts 206°
2026-04-25 05:05 4.02835 102.08256 25902 ft 396 kts 206°
2026-04-25 05:05 4.00358 102.06962 25908 ft 396 kts 206°
2026-04-25 05:05 3.97933 102.05696 25913 ft 396 kts 206°
2026-04-25 05:06 3.95496 102.04423 25909 ft 396 kts 206°
2026-04-25 05:06 3.93049 102.03145 25907 ft 396 kts 206°
2026-04-25 05:06 3.90606 102.01869 25909 ft 396 kts 206°
2026-04-25 05:06 3.88164 102.00594 25908 ft 396 kts 206°
2026-04-25 05:07 3.85851 101.99386 25914 ft 395 kts 206°
2026-04-25 05:07 3.83381 101.98097 25903 ft 395 kts 206°
2026-04-25 05:07 3.80975 101.96841 25917 ft 395 kts 206°
2026-04-25 05:07 3.78541 101.95569 25906 ft 395 kts 206°
2026-04-25 05:08 3.76109 101.94300 25918 ft 394 kts 206°
2026-04-25 05:08 3.73692 101.93037 25781 ft 390 kts 206°
2026-04-25 05:08 3.71299 101.91788 25531 ft 385 kts 206°
2026-04-25 05:08 3.68924 101.90548 25159 ft 384 kts 206°
2026-04-25 05:09 3.66517 101.89334 24830 ft 379 kts 201°
2026-04-25 05:09 3.64107 101.88419 24630 ft 372 kts 197°
2026-04-25 05:09 3.61658 101.87630 24392 ft 368 kts 195°
2026-04-25 05:09 3.59222 101.86872 24171 ft 366 kts 195°
2026-04-25 05:10 3.56785 101.86102 23934 ft 370 kts 195°
2026-04-25 05:10 3.54316 101.85305 23706 ft 374 kts 196°
2026-04-25 05:10 3.51844 101.84490 23450 ft 373 kts 196°
2026-04-25 05:10 3.49392 101.83670 23177 ft 370 kts 197°
2026-04-25 05:11 3.46959 101.82853 22931 ft 367 kts 196°
2026-04-25 05:11 3.44550 101.82042 22707 ft 364 kts 196°
2026-04-25 05:11 3.42157 101.81235 22458 ft 362 kts 196°
2026-04-25 05:12 3.37410 101.79637 22008 ft 359 kts 196°
2026-04-25 05:12 3.35048 101.78842 21795 ft 358 kts 196°
2026-04-25 05:12 3.32659 101.78038 21560 ft 357 kts 196°
2026-04-25 05:12 3.30293 101.77303 21331 ft 355 kts 188°
2026-04-25 05:13 3.27868 101.77333 21100 ft 348 kts 162°
2026-04-25 05:13 3.25685 101.78290 20925 ft 342 kts 145°
2026-04-25 05:13 3.23929 101.79827 20703 ft 340 kts 129°
2026-04-25 05:13 3.22922 101.81065 20577 ft 339 kts 127°
2026-04-25 05:14 3.20966 101.83506 20285 ft 340 kts 127°
2026-04-25 05:14 3.19479 101.85353 20065 ft 341 kts 128°
2026-04-25 05:14 3.18472 101.86595 19917 ft 341 kts 128°
2026-04-25 05:15 3.15478 101.90258 19492 ft 339 kts 128°
2026-04-25 05:15 3.13619 101.92744 19186 ft 334 kts 115°
2026-04-25 05:15 3.13087 101.94198 19061 ft 327 kts 105°
2026-04-25 05:15 3.12450 101.96364 18859 ft 323 kts 107°
2026-04-25 05:16 3.11500 101.99160 18596 ft 319 kts 111°
2026-04-25 05:16 3.10809 102.00493 18454 ft 319 kts 122°
2026-04-25 05:16 3.09524 102.02277 18268 ft 322 kts 124°
2026-04-25 05:16 3.08238 102.04130 18043 ft 325 kts 123°
2026-04-25 05:17 3.06906 102.05952 17798 ft 325 kts 131°
2026-04-25 05:17 3.05206 102.07436 17616 ft 323 kts 140°
2026-04-25 05:17 3.03480 102.08861 17400 ft 321 kts 137°
2026-04-25 05:17 3.01779 102.10308 17194 ft 320 kts 140°
2026-04-25 05:18 2.99861 102.11419 16991 ft 322 kts 154°
2026-04-25 05:18 2.97822 102.12326 16799 ft 320 kts 152°
2026-04-25 05:18 2.95813 102.13288 16596 ft 320 kts 152°
2026-04-25 05:18 2.93723 102.14055 16386 ft 323 kts 166°
2026-04-25 05:19 2.91505 102.14413 16194 ft 323 kts 168°
2026-04-25 05:19 2.89291 102.14809 15999 ft 322 kts 166°
2026-04-25 05:19 2.87075 102.15149 15788 ft 325 kts 175°
2026-04-25 05:19 2.84849 102.14750 15556 ft 332 kts 204°
2026-04-25 05:20 2.83035 102.13322 15399 ft 336 kts 229°
2026-04-25 05:20 2.81887 102.11290 15184 ft 339 kts 251°
2026-04-25 05:20 2.81550 102.08963 14968 ft 341 kts 274°
2026-04-25 05:20 2.81941 102.06630 14776 ft 340 kts 282°
2026-04-25 05:21 2.82426 102.04313 14530 ft 340 kts 282°
2026-04-25 05:21 2.82906 102.02003 14309 ft 339 kts 282°
2026-04-25 05:21 2.83379 101.99677 14096 ft 336 kts 281°
2026-04-25 05:21 2.83829 101.97428 13884 ft 332 kts 281°
2026-04-25 05:22 2.84273 101.95176 13678 ft 328 kts 281°
2026-04-25 05:22 2.84709 101.92953 13452 ft 324 kts 281°
2026-04-25 05:22 2.85140 101.90756 13232 ft 319 kts 281°
2026-04-25 05:22 2.85552 101.88597 13021 ft 313 kts 278°
2026-04-25 05:23 2.85448 101.86455 12631 ft 312 kts 251°
2026-04-25 05:23 2.84368 101.84523 11971 ft 319 kts 232°
2026-04-25 05:23 2.83061 101.82706 11174 ft 333 kts 230°
2026-04-25 05:23 2.81339 101.81149 10426 ft 340 kts 205°
2026-04-25 05:24 2.79071 101.80627 9984 ft 333 kts 175°
2026-04-25 05:24 2.76872 101.81037 10006 ft 313 kts 158°
2026-04-25 05:24 2.74995 101.82066 9991 ft 296 kts 144°
2026-04-25 05:24 2.73357 101.83185 9971 ft 283 kts 144°
2026-04-25 05:25 2.71694 101.84318 9316 ft 294 kts 144°
2026-04-25 05:25 2.69984 101.85481 8797 ft 299 kts 144°
2026-04-25 05:25 2.68290 101.86625 8490 ft 297 kts 144°
2026-04-25 05:25 2.66589 101.87768 8234 ft 292 kts 144°
2026-04-25 05:26 2.64894 101.88905 7988 ft 287 kts 145°
2026-04-25 05:26 2.63266 101.89995 7758 ft 283 kts 144°
2026-04-25 05:26 2.61650 101.91079 7530 ft 279 kts 144°
2026-04-25 05:26 2.60042 101.92156 7294 ft 276 kts 144°
2026-04-25 05:27 2.58462 101.93215 7071 ft 272 kts 144°
2026-04-25 05:27 2.56900 101.94261 6843 ft 269 kts 144°
2026-04-25 05:27 2.55319 101.95244 6632 ft 267 kts 155°
2026-04-25 05:27 2.53508 101.95501 6412 ft 267 kts 188°
2026-04-25 05:28 2.51804 101.94804 6207 ft 266 kts 214°
2026-04-25 05:28 2.50510 101.93504 5989 ft 264 kts 234°
2026-04-25 05:28 2.49505 101.91983 5774 ft 261 kts 236°
2026-04-25 05:28 2.48784 101.90340 5517 ft 259 kts 264°
2026-04-25 05:29 2.49134 101.88639 5357 ft 250 kts 304°
2026-04-25 05:29 2.50426 101.87583 5195 ft 237 kts 343°
2026-04-25 05:29 2.51974 101.87092 5035 ft 233 kts 338°
2026-04-25 05:29 2.53380 101.86305 4844 ft 231 kts 330°
2026-04-25 05:30 2.54744 101.85473 4660 ft 228 kts 330°
2026-04-25 05:30 2.56105 101.84652 4473 ft 232 kts 332°
2026-04-25 05:30 2.57561 101.83827 3986 ft 240 kts 330°
2026-04-25 05:30 2.58947 101.82952 3638 ft 234 kts 328°
2026-04-25 05:31 2.60283 101.82055 3336 ft 224 kts 327°
2026-04-25 05:31 2.61538 101.81205 3054 ft 219 kts 328°
2026-04-25 05:31 2.62794 101.80356 2777 ft 217 kts 328°
2026-04-25 05:31 2.64049 101.79511 2488 ft 217 kts 328°
2026-04-25 05:32 2.65260 101.78689 2206 ft 202 kts 328°
2026-04-25 05:32 2.66386 101.77928 1944 ft 190 kts 328°
2026-04-25 05:32 2.67429 101.77224 1738 ft 172 kts 328°
2026-04-25 05:32 2.68380 101.76581 1510 ft 158 kts 328°
2026-04-25 05:33 2.69278 101.75975 1305 ft 154 kts 328°
2026-04-25 05:33 2.70169 101.75375 1121 ft 156 kts 327°
2026-04-25 05:33 2.71068 101.74766 940 ft 155 kts 328°
2026-04-25 05:33 2.71953 101.74170 757 ft 152 kts 327°
2026-04-25 05:34 2.72829 101.73571 575 ft 154 kts 325°
2026-04-25 05:34 2.73702 101.72951 375 ft 153 kts 326°
2026-04-25 05:34 2.74583 101.72371 189 ft 150 kts 327°
2026-04-25 05:34 2.75430 101.71812 76 ft 140 kts 327°
2026-04-25 05:35 2.76107 101.71355 65 ft 95 kts 326°
2026-04-25 05:35 2.76530 101.71073 64 ft 51 kts 326°
2026-04-25 05:35 2.76753 101.70922 63 ft 36 kts 323°
2026-04-25 05:35 2.76882 101.70761 61 ft 29 kts 300°
2026-04-25 05:36 2.76879 101.70619 63 ft 22 kts 188°
2026-04-25 05:36 2.76757 101.70690 66 ft 21 kts 146°
2026-04-25 05:36 2.76634 101.70772 59 ft 21 kts 146°
2026-04-25 05:36 2.76516 101.70851 60 ft 20 kts 146°
2026-04-25 05:37 2.76403 101.70927 61 ft 19 kts 146°
2026-04-25 05:37 2.76291 101.70999 59 ft 19 kts 153°
2026-04-25 05:37 2.76169 101.71038 63 ft 18 kts 171°
2026-04-25 05:37 2.76047 101.71061 63 ft 17 kts 159°
2026-04-25 05:38 2.75947 101.71119 67 ft 16 kts 145°
2026-04-25 05:38 2.75847 101.71145 69 ft 16 kts 210°
2026-04-25 05:38 2.75782 101.71061 64 ft 15 kts 236°
2026-04-25 05:38 2.75727 101.70975 72 ft 14 kts 237°
2026-04-25 05:39 2.75673 101.70894 68 ft 14 kts 235°
2026-04-25 05:39 2.75622 101.70823 72 ft 12 kts 224°
2026-04-25 05:39 2.75555 101.70781 65 ft 11 kts 224°
2026-04-25 05:39 2.75537 101.70758 72 ft 0 kts 235°
2026-04-25 05:40 2.75532 101.70752 72 ft 3 kts 234°
2026-04-25 05:40 2.75504 101.70747 72 ft 2 kts 160°
2026-04-25 05:40 2.75490 101.70755 70 ft 2 kts 150°
2026-04-25 05:40 2.75483 101.70759 66 ft 0 kts 148°